Home > Weather > 's-Hertogenbosch > Past weeks

Flag for Netherlands Weather for the Past 2 Weeks in 's-Hertogenbosch, Netherlands

Now
34 °F

Passing clouds.


Feels Like: 31 °F
Forecast: 32 / 42 °F
Wind: 3 mph from Northeast

Location: Volkel

Current Time: Feb 12, 2016 at 9:52:45 PM

Latest Report: Feb 12, 2016 at 9:25 PM


Visibility: N/A

Pressure: 29.45 "Hg

Humidity: 81%

Dew point: 28 °F

Location of 's-HertogenboschLocation

Historic Weather in 's-Hertogenbosch — Graph

°F

's-Hertogenbosch Temperature Yesterday

Maximum temperature yesterday: 45 °F (at 12:25 PM)
Minimum temperature yesterday: 32 °F (at 12:55 AM)
Average temperature yesterday: 38 °F

High & Low Weather Summary for the Past Weeks

 TemperatureHumidityPressure
High54 °F (Jan 31, 10:25 PM)100% (Jan 31, 3:55 PM)30.30 "Hg (Jan 31, 3:55 PM)
Low32 °F (Feb 11, 12:55 AM)57% (Feb 3, 1:25 PM)28.85 "Hg (Feb 9, 2:58 PM)
Average44 °F84%29.74 "Hg
* Reported Jan 28 8:25 PM — Feb 12 8:55 PM, 's-Hertogenbosch, Weather by CustomWeather, © 2016

Note: Actual official high and low records may vary slightly from our data, if they occured in-between our weather recording intervals... More about our weather records

Advertising

's-Hertogenbosch Weather History for the Previous 24 Hours

 ConditionsComfort  
Time TempWeatherWind HumidityBarometerVisibility
8:55 PM
Fri, Feb 12
34 °FChilly.5 mph87%29.45 "HgN/A
8:25 PM32 °FOvercast.6 mph87%29.45 "HgN/A
7:55 PM36 °FPassing clouds.5 mph81%29.45 "HgN/A
7:25 PM36 °FOvercast.6 mph81%29.45 "HgN/A
6:55 PM36 °FOvercast.6 mph81%29.42 "HgN/A
6:25 PM37 °FPassing clouds.7 mph75%29.42 "HgN/A
5:55 PM39 °FPassing clouds.7 mph70%29.42 "HgN/A
5:25 PM41 °FPartly sunny.9 mph70%29.42 "HgN/A
4:55 PM41 °FScattered clouds.9 mph70%29.42 "HgN/A
4:25 PM43 °FPartly sunny.12 mph66%29.42 "HgN/A
3:55 PM43 °FScattered clouds.12 mph66%29.42 "HgN/A
3:25 PM43 °FScattered clouds.9 mph71%29.42 "HgN/A
2:55 PM45 °FBroken clouds.8 mph66%29.45 "HgN/A
2:25 PM45 °FPassing clouds.9 mph66%29.45 "HgN/A
1:55 PM43 °FScattered clouds.8 mph66%29.47 "HgN/A
1:25 PM45 °FScattered clouds.9 mph66%29.47 "HgN/A
1:02 PM43 °FBroken clouds.8 mph71%29.47 "HgN/A
12:25 PM43 °FPartly sunny.8 mph71%29.50 "HgN/A
11:55 AM41 °FOvercast.7 mph76%29.50 "HgN/A
11:25 AM41 °FMostly cloudy.8 mph81%29.53 "HgN/A
10:55 AM39 °FOvercast.6 mph81%29.53 "HgN/A
10:25 AM39 °FOvercast.8 mph81%29.53 "HgN/A
9:55 AM39 °FOvercast.7 mph87%29.53 "HgN/A
9:25 AM37 °FOvercast.5 mph93%29.53 "HgN/A
8:55 AM37 °FOvercast.5 mph93%29.56 "HgN/A
8:25 AM37 °FOvercast.5 mph93%29.56 "HgN/A
7:56 AM37 °FMostly cloudy.5 mph93%29.56 "HgN/A
7:25 AM37 °FMostly cloudy.6 mph93%29.56 "HgN/A
6:55 AM37 °FOvercast.6 mph93%29.59 "HgN/A
6:25 AM37 °FMostly cloudy.5 mph93%29.59 "HgN/A
5:55 AM36 °FFog.5 mph100%29.59 "Hg6 mi
5:25 AM36 °FPassing clouds.6 mph93%29.59 "HgN/A
4:55 AM37 °FOvercast.3 mph93%29.59 "HgN/A
4:25 AM37 °FOvercast.5 mph93%29.59 "HgN/A
4:02 AM37 °FMostly cloudy.6 mph93%29.62 "HgN/A
3:25 AM37 °FOvercast.5 mph93%29.62 "HgN/A
2:55 AM37 °FOvercast.3 mph93%29.62 "HgN/A
2:25 AM37 °FOvercast.6 mph93%29.62 "HgN/A
1:55 AM37 °FOvercast.6 mph93%29.62 "HgN/A
1:25 AM36 °FFog.6 mph100%29.65 "Hg6 mi
12:55 AM34 °FFog.5 mph93%29.65 "Hg4 mi
12:25 AM32 °FIce fog.2 mph100%29.65 "Hg4 mi
11:57 PM
Thu, Feb 11
32 °FIce fog.3 mph100%29.65 "Hg3 mi
9:55 PM36 °FFog.3 mph93%29.65 "Hg3 mi
9:25 PM36 °FFog.5 mph93%29.65 "Hg4 mi
Weather by CustomWeather, © 2016

See weather overviewHow to use our weather pages